Terminal Aerodrome Forecast
Issued by NWS Upton, NY

Home | Current Version | Previous Version | Text Only | Print | Product List | Glossary On
Versions: 1 2 3 4 5 6 7 8 9 10 11 12 13 14 15 16 17 18 19 20 21 22 23 24 25 26 27 28 29 30
000
FTUS41 KOKX 190800 AAA
TAFBDR
TAF AMD
KBDR 190830Z 1909/2006 28008KT P6SM SCT030 BKN050
     FM191300 33013G19KT P6SM SCT035 BKN060
     FM192200 32008KT P6SM SCT035
     FM200500 36005KT P6SM SCT035=

USA.gov is the U.S. government's official web portal to all federal, state and local government web resources and services.